This demonstration page uses our WeatherBlox Daily Observations layout. Learn more.

Left ArrowRight Arrow

53.62937, 11.41316

Hourly Observations for March 16, 2021

Temp ( °F °C ) Dew Point ( °F °C ) Humidity (%) Winds ( mph kmh ) Pressure ( in mb ) Visibility ( mi km ) Precip ( " mm )
7:20 am 07:20 Mostly Cloudy with Mist and Fog 34 1 34 1 100 100 WSW 6 9 30.03 1017 2 3 N/A
7:50 am 07:50 Partly Cloudy with Mist and Fog 34 1 34 1 100 100 WSW 6 9 30.03 1017 3 4 N/A
8:20 am 08:20 Mostly Cloudy 36 2 36 2 100 100 WSW 6 9 30.03 1017 5 8 N/A
8:50 am 08:50 Mostly Cloudy 37 3 36 2 93 93 WSW 3 6 30.03 1017 30 48 N/A
9:20 am 09:20 Mostly Cloudy 39 4 37 3 93 93 WSW 7 11 30.03 1017 30 48 N/A
9:50 am 09:50 Partly Cloudy 41 5 36 2 81 81 WSW 8 13 30.03 1017 30 48 N/A
10:20 am 10:20 Partly Cloudy 43 6 36 2 76 76 WSW 6 9 30.06 1018 30 48 N/A
10:50 am 10:50 Partly Cloudy 43 6 36 2 76 76 W 7 11 30.06 1018 30 48 N/A
11:20 am 11:20 Partly Cloudy 43 6 36 2 76 76 WSW 7 11 30.06 1018 30 48 N/A
11:50 am 11:50 Partly Cloudy 43 6 34 1 71 71 WSW 9 15 30.06 1018 30 48 N/A
12:20 pm 12:20 Partly Cloudy 46 8 36 2 66 66 WSW 9 15 30.06 1018 30 48 N/A
12:50 pm 12:50 Partly Cloudy 46 8 36 2 66 66 W 6 9 30.06 1018 30 48 N/A
1:20 pm 13:20 Partly Cloudy 46 8 34 1 62 62 W 6 9 30.06 1018 30 48 N/A
1:50 pm 13:50 Partly Cloudy 46 8 36 2 66 66 VRB 7 11 30.06 1018 30 48 N/A
2:20 pm 14:20 Partly Cloudy 45 7 34 1 66 66 WSW 7 11 30.06 1018 30 48 N/A
2:50 pm 14:50 Partly Cloudy 46 8 34 1 62 62 W 5 7 30.06 1018 30 48 N/A
3:20 pm 15:20 Partly Cloudy 46 8 34 1 62 62 WSW 7 11 30.06 1018 30 48 N/A
3:50 pm 15:50 Partly Cloudy 48 9 32 0 54 54 WSW 6 9 30.06 1018 30 48 N/A
4:20 pm 16:20 Partly Cloudy 46 8 34 1 62 62 W 8 13 30.06 1018 30 48 N/A
4:50 pm 16:50 Partly Cloudy 46 8 34 1 62 62 W 6 9 30.06 1018 30 48 N/A
5:20 pm 17:20 Partly Cloudy 45 7 32 0 61 61 W 7 11 30.06 1018 30 48 N/A
5:50 pm 17:50 Mostly Sunny 45 7 32 0 61 61 WSW 7 11 30.09 1019 30 48 N/A
6:20 pm 18:20 Partly Cloudy 43 6 32 0 66 66 WSW 7 11 30.09 1019 30 48 N/A
6:50 pm 18:50 Partly Cloudy 43 6 32 0 66 66 WSW 8 13 30.09 1019 30 48 N/A
7:20 pm 19:20 Mostly Clear 41 5 30 -1 66 66 W 7 11 30.09 1019 30 48 N/A
7:50 pm 19:50 Mostly Clear 39 4 30 -1 70 70 WSW 7 11 30.12 1020 7 11 N/A

Powered by AerisWeather